TJS-5

Last updated on Sun Apr 12 2026 00:02:55 GMT+0000 (Coordinated Universal Time)

1 44978U 20002A 26101.54201081 -.00000341 00000+0 00000+0 0 9994 2 44978 0.1819 270.1031 0005944 125.6795 106.6255 1.00272959 23032
UTC large
Height (km)
Speed (km/s)
/
Latitude / Longitude
Inclination (degrees)
Orbital Period (minutes)
Azimuth
Elevation
Range (km)
Doppler Factor

Next 0 passes for location: London (51.5072 / 0.1276)

Sorry there are no passes over London.
TJS-5